This demonstration page uses our WeatherBlox Daily Observations layout. Learn more.

Left ArrowRight Arrow

39.01783, -85.05884

Hourly Observations for September 20, 2018

Temp ( °F °C ) Dew Point ( °F °C ) Humidity (%) Winds ( mph kmh ) Pressure ( in mb ) Visibility ( mi km ) Precip ( " mm )
12:52 am 00:52 Mostly Clear 76 24.4 70 21.1 82 82 SSE 5 7 29.99 1016 10 16 N/A
1:52 am 01:52 Clear 76 24.4 70 21.1 82 82 SSE 5 7 29.98 1015 10 16 N/A
2:52 am 02:52 Clear 74 23.3 70 21.1 88 88 SSW 5 7 29.98 1015 9 14 N/A
3:52 am 03:52 Clear 70 21.1 69 20.6 97 97 S 5 7 30.00 1016 7 11 N/A
4:52 am 04:52 Clear 72 22.2 69 20.6 91 91 N N/A 30.01 1016 8 13 N/A
5:52 am 05:52 Mostly Clear 72 22.2 68 20 87 87 S 3 6 30.01 1016 9 14 N/A
6:52 am 06:52 Mostly Clear 69 20.6 68 20 96 96 S 5 7 30.02 1017 7 11 N/A
7:52 am 07:52 Partly Cloudy with Mist and Fog 71 21.7 69 20.6 94 94 S 7 11 30.04 1017 6 10 N/A
8:52 am 08:52 Mostly Sunny 75 23.9 71 21.7 88 88 SSW 6 9 30.05 1018 10 16 N/A
9:52 am 09:52 Sunny 79 26.1 71 21.7 77 77 S 6 9 30.06 1018 9 14 N/A
10:52 am 10:52 Sunny 83 28.3 71 21.7 67 67 SSW 8 13 30.06 1018 10 16 N/A
11:52 am 11:52 Sunny 85 29.4 73 22.8 68 68 SSW 7 11 30.06 1018 10 16 N/A
12:52 pm 12:52 Mostly Sunny 88 31.1 72 22.2 59 59 WSW 8 13 30.05 1018 10 16 N/A
1:52 pm 13:52 Partly Cloudy 89 31.7 71 21.7 55 55 SW 7 11 30.04 1017 10 16 N/A
2:52 pm 14:52 Partly Cloudy 89 31.7 72 22.2 57 57 WSW 7 11 30.02 1017 10 16 N/A
3:52 pm 15:52 Mostly Sunny 89 31.7 71 21.7 55 55 S 13 20 30.00 1016 10 16 N/A
4:52 pm 16:52 Mostly Sunny 89 31.7 70 21.1 53 53 SSW 10 17 29.99 1016 10 16 N/A
5:52 pm 17:52 Partly Cloudy 88 31.1 70 21.1 55 55 S 8 13 29.98 1015 10 16 N/A
6:52 pm 18:52 Mostly Sunny 85 29.4 71 21.7 63 63 S 7 11 29.98 1015 10 16 N/A
7:52 pm 19:52 Partly Cloudy 79 26.1 71 21.7 77 77 S 8 13 29.99 1016 10 16 N/A
8:52 pm 20:52 Mostly Clear 79 26.1 70 21.1 74 74 S 8 13 29.98 1015 10 16 N/A
9:52 pm 21:52 Clear 79 26.1 70 21.1 74 74 S 8 13 29.98 1015 10 16 N/A
10:52 pm 22:52 Clear 80 26.7 70 21.1 71 71 S 10 17 29.98 1015 10 16 N/A
11:52 pm 23:52 Clear 79 26.1 69 20.6 72 72 S 8 13 29.98 1015 10 16 N/A

Powered by AerisWeather